• In Hungary
  • List of Countries
  • For 7 days
  • Water Temperature
  • Satellite Maps
  • Weather Map
  • News
  • Weather Widgets
  • user-avatar
    Login

    Hourly Weather Kapellen

    Today, 12 November, Monday

    Time Temperature Precipitation Wind Pressure Humidity
    00:00 +10°C° 0 mm 3 mps 757 mmHg 92%
    01:00 +10°C° 0.2 mm 3 mps 757 mmHg 92%
    02:00 +10°C° 0.2 mm 3 mps 757 mmHg 93%
    03:00 +10°C° 0.2 mm 4 mps 757 mmHg 93%
    04:00 +10°C° 0.8 mm 3 mps 757 mmHg 94%
    05:00 +10°C° 0.8 mm 2 mps 757 mmHg 95%
    06:00 +10°C° 0 mm 3 mps 757 mmHg 95%
    07:00 +10°C° 0.7 mm 3 mps 758 mmHg 95%
    08:00 +10°C° 0.7 mm 2 mps 758 mmHg 94%
    09:00 +10°C° 0.7 mm 2 mps 758 mmHg 94%
    10:00 +10°C° 0.4 mm 2 mps 758 mmHg 92%
    11:00 +10°C° 0.4 mm 2 mps 758 mmHg 90%
    12:00 +11°C° 0.4 mm 3 mps 758 mmHg 88%
    13:00 +11°C° 0.1 mm 3 mps 759 mmHg 86%
    14:00 +11°C° 0.1 mm 3 mps 759 mmHg 85%
    15:00 +11°C° 0.1 mm 3 mps 759 mmHg 83%
    16:00 +10°C° 0 mm 3 mps 760 mmHg 85%
    17:00 +10°C° 0 mm 3 mps 760 mmHg 87%
    18:00 +9°C° 0 mm 3 mps 761 mmHg 89%
    19:00 +8°C° 0 mm 4 mps 761 mmHg 89%
    20:00 +8°C° 0 mm 4 mps 761 mmHg 88%
    21:00 +8°C° 0 mm 4 mps 762 mmHg 88%
    22:00 +8°C° 0 mm 4 mps 762 mmHg 88%
    23:00 +9°C° 0 mm 5 mps 762 mmHg 89%

    Tomorrow, 13 November, Tuesday

    Time Temperature Precipitation Wind Pressure Humidity
    00:00 +9°C° 0 mm 5 mps 762 mmHg 89%
    01:00 +9°C° 0 mm 5 mps 762 mmHg 89%
    02:00 +9°C° 0 mm 6 mps 762 mmHg 89%
    03:00 +9°C° 0 mm 6 mps 762 mmHg 89%
    04:00 +9°C° 0 mm 6 mps 763 mmHg 89%
    05:00 +9°C° 0 mm 7 mps 763 mmHg 88%
    06:00 +9°C° 0 mm 7 mps 763 mmHg 87%
    07:00 +9°C° 0.1 mm 7 mps 764 mmHg 85%
    08:00 +10°C° 0.1 mm 8 mps 764 mmHg 83%
    09:00 +10°C° 0.1 mm 8 mps 765 mmHg 81%
    10:00 +10°C° 0.1 mm 8 mps 765 mmHg 77%
    11:00 +11°C° 0.1 mm 8 mps 766 mmHg 73%
    12:00 +12°C° 0.1 mm 7 mps 766 mmHg 69%
    13:00 +12°C° 0 mm 7 mps 767 mmHg 70%
    14:00 +13°C° 0 mm 6 mps 767 mmHg 71%
    15:00 +12°C° 0 mm 5 mps 768 mmHg 71%
    16:00 +12°C° 0 mm 5 mps 768 mmHg 75%
    17:00 +10°C° 0 mm 5 mps 769 mmHg 80%
    18:00 +10°C° 0 mm 4 mps 769 mmHg 84%
    19:00 +10°C° 0 mm 4 mps 769 mmHg 85%
    20:00 +8°C° 0 mm 4 mps 770 mmHg 87%
    21:00 +8°C° 0 mm 4 mps 770 mmHg 89%
    22:00 +8°C° 0 mm 4 mps 770 mmHg 89%
    23:00 +8°C° 0 mm 4 mps 770 mmHg 89%

    Day after tomorrow, 14 November, Wednesday

    Time Temperature Precipitation Wind Pressure Humidity
    00:00 +7°C° 0 mm 4 mps 770 mmHg 90%
    01:00 +7°C° 0 mm 4 mps 770 mmHg 90%
    02:00 +7°C° 0 mm 4 mps 770 mmHg 91%
    03:00 +7°C° 0 mm 3 mps 770 mmHg 92%
    04:00 +7°C° 0 mm 3 mps 770 mmHg 92%
    05:00 +7°C° 0 mm 3 mps 770 mmHg 92%
    06:00 +7°C° 0 mm 3 mps 769 mmHg 92%
    07:00 +7°C° 0 mm 4 mps 770 mmHg 89%
    08:00 +7°C° 0 mm 4 mps 770 mmHg 87%
    09:00 +8°C° 0 mm 4 mps 770 mmHg 84%
    10:00 +10°C° 0 mm 4 mps 770 mmHg 79%
    11:00 +11°C° 0 mm 4 mps 769 mmHg 74%
    12:00 +12°C° 0 mm 4 mps 769 mmHg 70%
    13:00 +12°C° 0 mm 3 mps 769 mmHg 71%
    14:00 +12°C° 0 mm 3 mps 769 mmHg 72%
    15:00 +13°C° 0 mm 2 mps 768 mmHg 73%
    16:00 +12°C° 0 mm 2 mps 768 mmHg 77%
    17:00 +10°C° 0 mm 3 mps 768 mmHg 80%
    18:00 +9°C° 0 mm 3 mps 768 mmHg 84%
    19:00 +8°C° 0 mm 3 mps 768 mmHg 84%
    20:00 +8°C° 0 mm 3 mps 769 mmHg 85%
    21:00 +7°C° 0 mm 3 mps 769 mmHg 85%
    22:00 +7°C° 0 mm 3 mps 769 mmHg 84%
    23:00 +7°C° 0 mm 2 mps 768 mmHg 83%

    15 November, Thursday

    Time Temperature Precipitation Wind Pressure Humidity
    00:00 +6°C° 0 mm 2 mps 768 mmHg 82%
    01:00 +6°C° 0 mm 2 mps 768 mmHg 82%
    02:00 +6°C° 0 mm 2 mps 768 mmHg 81%
    03:00 +6°C° 0 mm 2 mps 768 mmHg 81%
    04:00 +6°C° 0 mm 2 mps 768 mmHg 80%
    05:00 +6°C° 0 mm 2 mps 768 mmHg 79%
    06:00 +5°C° 0 mm 2 mps 768 mmHg 79%
    07:00 +6°C° 0 mm 2 mps 768 mmHg 76%
    08:00 +7°C° 0 mm 2 mps 768 mmHg 72%
    09:00 +8°C° 0 mm 2 mps 768 mmHg 69%
    10:00 +9°C° 0 mm 2 mps 768 mmHg 65%
    11:00 +12°C° 0 mm 2 mps 768 mmHg 62%
    12:00 +13°C° 0 mm 2 mps 768 mmHg 58%
    13:00 +13°C° 0 mm 2 mps 767 mmHg 61%
    14:00 +13°C° 0 mm 2 mps 767 mmHg 65%
    15:00 +12°C° 0 mm 2 mps 767 mmHg 68%
    16:00 +10°C° 0 mm 2 mps 767 mmHg 73%
    17:00 +9°C° 0 mm 2 mps 767 mmHg 77%
    18:00 +9°C° 0 mm 3 mps 767 mmHg 81%
    19:00 +8°C° 0 mm 2 mps 767 mmHg 83%
    20:00 +8°C° 0 mm 2 mps 767 mmHg 84%
    21:00 +8°C° 0 mm 2 mps 768 mmHg 86%
    22:00 +8°C° 0 mm 2 mps 768 mmHg 86%
    23:00 +8°C° 0 mm 2 mps 768 mmHg 87%

    16 November, Friday

    Time Temperature Precipitation Wind Pressure Humidity
    00:00 +7°C° 0 mm 2 mps 768 mmHg 87%
    01:00 +7°C° 0 mm 2 mps 768 mmHg 86%
    02:00 +7°C° 0 mm 2 mps 768 mmHg 86%
    03:00 +7°C° 0 mm 2 mps 768 mmHg 85%
    04:00 +7°C° 0 mm 2 mps 768 mmHg 84%
    05:00 +7°C° 0 mm 2 mps 768 mmHg 83%
    06:00 +6°C° 0 mm 2 mps 768 mmHg 82%
    07:00 +7°C° 0 mm 2 mps 769 mmHg 78%
    08:00 +8°C° 0 mm 2 mps 769 mmHg 74%
    09:00 +9°C° 0 mm 2 mps 769 mmHg 69%
    10:00 +10°C° 0 mm 2 mps 769 mmHg 64%
    11:00 +12°C° 0 mm 2 mps 769 mmHg 59%
    12:00 +13°C° 0 mm 2 mps 769 mmHg 54%
    13:00 +13°C° 0 mm 2 mps 769 mmHg 57%
    14:00 +12°C° 0 mm 2 mps 768 mmHg 59%
    15:00 +12°C° 0 mm 2 mps 768 mmHg 61%
    16:00 +10°C° 0 mm 3 mps 768 mmHg 63%
    17:00 +9°C° 0 mm 3 mps 768 mmHg 64%
    18:00 +8°C° 0 mm 3 mps 769 mmHg 65%
    19:00 +8°C° 0 mm 3 mps 769 mmHg 65%
    20:00 +7°C° 0 mm 3 mps 769 mmHg 65%
    21:00 +7°C° 0 mm 3 mps 769 mmHg 65%
    22:00 +7°C° 0 mm 3 mps 769 mmHg 65%
    23:00 +5°C° 0 mm 3 mps 769 mmHg 65%

    17 November, Saturday

    Time Temperature Precipitation Wind Pressure Humidity
    00:00 +5°C° 0 mm 3 mps 769 mmHg 65%
    01:00 +5°C° 0 mm 3 mps 769 mmHg 67%
    02:00 +4°C° 0 mm 3 mps 769 mmHg 68%
    03:00 +4°C° 0 mm 3 mps 769 mmHg 70%
    04:00 +4°C° 0 mm 3 mps 769 mmHg 72%
    05:00 +4°C° 0 mm 3 mps 769 mmHg 73%
    06:00 +3°C° 0 mm 4 mps 769 mmHg 75%
    07:00 +4°C° 0 mm 4 mps 769 mmHg 72%
    08:00 +5°C° 0 mm 4 mps 769 mmHg 70%
    09:00 +5°C° 0 mm 4 mps 769 mmHg 68%
    10:00 +7°C° 0 mm 4 mps 769 mmHg 64%
    11:00 +8°C° 0 mm 4 mps 769 mmHg 60%
    12:00 +10°C° 0 mm 4 mps 769 mmHg 56%
    13:00 +10°C° 0 mm 4 mps 769 mmHg 57%
    14:00 +10°C° 0 mm 4 mps 769 mmHg 58%
    15:00 +8°C° 0 mm 4 mps 769 mmHg 58%
    16:00 +8°C° 0 mm 4 mps 769 mmHg 60%
    17:00 +7°C° 0 mm 5 mps 769 mmHg 62%
    18:00 +6°C° 0 mm 5 mps 769 mmHg 64%
    19:00 +6°C° 0 mm 4 mps 769 mmHg 64%
    20:00 +5°C° 0 mm 4 mps 769 mmHg 65%
    21:00 +5°C° 0 mm 4 mps 769 mmHg 66%
    22:00 +4°C° 0 mm 4 mps 769 mmHg 66%
    23:00 +4°C° 0 mm 4 mps 769 mmHg 66%
    Show more